Location: Loubersan
(43.4972°N, 0.4961°E)
Time: 12:36:45
(UTC+00:00)

Daily predictions for brighter satellites

Satellite Brightness Start Highest point End
(mag) Time Altitude Azimuth Time Altitude Azimuth Time Altitude Azimuth
BREEZE-M DEB (TANK) 4.3 16:48:06 10° W 16:51:55 61° N 17:04:43 10° ENE
H-2A R/B 2.2 16:50:27 10° NNE 16:54:34 51° E 16:58:43 10° S
YAOGAN 6 2.7 16:51:29 10° SSE 16:55:04 56° ENE 16:58:38 10° N
NOAA 6 4.0 16:51:12 10° SSE 16:56:21 79° ENE 17:01:30 10° NNW
Cosmos 1356 4.3 16:53:47 10° NNE 16:56:50 29° ENE 16:59:51 10° SE
Cosmos 2298 Rocket 4.5 16:54:16 10° NNW 16:59:33 69° WSW 17:04:49 10° S
Cosmos 2150 Rocket 4.3 16:54:29 10° NNW 16:59:39 74° WSW 17:04:46 10° SSE
GENESIS II 4.2 16:55:49 10° NW 16:59:47 88° ENE 17:03:39 10° SE
Cosmos 1867 3.8 16:55:09 10° SSW 17:00:25 55° ESE 17:05:44 10° NE
Cosmos 44 4.2 16:55:52 10° NNW 17:00:35 32° NE 17:05:24 10° ESE
Cosmos 2154 Rocket 4.1 16:55:19 10° N 17:01:42 82° E 17:08:03 10° S
CZ-4B R/B 3.2 16:57:27 10° SSE 17:02:40 58° ENE 17:07:51 10° N
USA 267 4.1 16:57:40 10° ENE 17:03:18 32° NNE 17:08:56 10° NW
Cosmos 2237 Rocket 2.3 16:57:47 10° SSW 17:03:25 82° WNW 17:09:05 10° NNE
Cosmos 1633 Rocket 4.0 17:00:21 10° NNE 17:03:59 25° ENE 17:07:36 10° SE
Cosmos 2221 3.8 17:00:41 10° SSW 17:04:48 43° WNW 17:08:57 10° N
CORIOLIS 4.3 17:00:07 10° SE 17:05:20 51° ENE 17:10:35 10° N
Cosmos 1125 Rocket 3.5 17:00:16 10° NNW 17:05:30 87° ENE 17:10:44 10° SSE
Cosmos 1818 4.1 17:02:21 10° NW 17:07:47 68° WSW 17:13:10 10° SSE
Lacrosse 5 rocket 1.7 17:05:45 10° SSW 17:09:12 38° SE 17:12:16 12° ENE
Cosmos 1862 4.0 17:06:45 10° NNW 17:10:44 59° W 17:14:39 10° S
Meteor 2-12 Rocket 4.5 17:07:14 10° N 17:13:21 62° E 17:19:23 10° SSE
H-2A R/B 2.8 17:10:21 10° S 17:14:40 73° WSW 17:18:51 10° NNW
Cosmos 2341 Rocket 4.1 17:09:01 10° N 17:15:13 57° ENE 17:21:25 10° SSE
Cosmos 2369 Rocket 3.5 17:12:14 10° N 17:16:15 19° NE 17:20:02 11° E
USA 281 4.1 17:12:34 10° ESE 17:17:51 27° NE 17:23:10 10° N
CZ-2C R/B 4.2 17:17:20 10° ESE 17:20:45 19° ENE 17:24:04 10° NNE
Cosmos 1980 4.4 17:16:51 10° SW 17:22:25 56° WNW 17:28:01 10° NNE
BREEZE-M DEB (TANK) 1.6 17:22:14 10° WSW 17:25:10 90° ESE 17:26:19 22° ENE
FengYun 1-2 T 4.2 17:22:23 10° SSE 17:27:51 64° ENE 17:33:18 10° N
Cosmos 2285 Rocket 4.2 17:21:45 10° N 17:27:57 48° ENE 17:34:03 10° SE
SL-8 Rocket 4.1 17:22:16 10° N 17:28:23 55° ENE 17:34:30 10° SSE
Envisat 4.0 17:24:58 10° S 17:29:54 52° W 17:34:53 10° NNW
Cosmos 1943 Rocket 2.7 17:28:33 10° N 17:33:39 36° NE 17:38:45 10° ESE
CREW DRAGON DEMO-1 DEB 2.6 17:33:15 10° NW 17:36:14 74° NNE 17:38:11 19° ESE
YAOGAN 1 3.9 17:36:42 19° ENE 17:36:42 19° ENE 17:39:34 10° NNE
SAR-Lupe-4 4.5 17:35:12 19° NE 17:36:57 28° E 17:40:05 10° SSE
BREEZE-M TANK 3.9 17:33:06 10° WNW 17:38:19 40° SW 17:41:25 10° SE
CZ-4 R/B 2.6 17:39:48 20° NE 17:39:48 20° NE 17:42:18 10° NNE
Cosmos 2181 Rocket 4.0 17:35:20 10° S 17:41:42 68° E 17:48:01 10° NNE
Cosmos 773 Rocket 4.2 17:36:41 10° S 17:41:45 51° ESE 17:46:28 12° NNE
Cosmos 1470 Rocket 4.1 17:38:32 10° N 17:42:32 35° ENE 17:46:29 10° SE
Cosmos 1939 Rocket 2.9 17:41:30 10° SSE 17:45:13 48° ENE 17:49:00 10° N
IRS-1C Rocket 4.2 17:42:40 10° SE 17:47:43 49° ENE 17:52:48 10° N
Cosmos 2297 3.6 17:42:33 10° NNW 17:48:16 76° ENE 17:53:58 10° SSE
Sich 1 3.8 17:44:25 10° NNW 17:48:42 56° W 17:52:56 10° S
Cosmos 1515 Rocket 4.1 17:45:04 10° SSE 17:49:00 34° E 17:51:09 21° NE
Meteor 1-4 Rocket 3.0 17:45:59 10° SSE 17:49:22 38° E 17:50:34 29° NE
COSMO-SKYMED 1 2.7 17:47:07 11° NNE 17:51:15 51° E 17:55:28 10° S
Cosmos 1606 4.0 17:49:48 10° SSW 17:53:31 42° WNW 17:57:14 10° N
SL-16 R/B 2.2 17:47:52 10° SSW 17:53:32 89° NW 17:59:03 11° NNE
SMAP 4.2 17:49:15 10° S 17:53:44 47° W 17:58:14 10° NNW
SAR-Lupe-1 4.4 17:52:40 29° NE 17:54:04 44° E 17:57:30 10° S
USA 81 3.9 17:49:35 10° N 17:54:54 78° E 18:00:10 10° S
FALCON 9 R/B 2.9 17:55:24 10° SSW 17:56:32 13° SSE 17:57:03 12° SSE
Cosmos 1151 Rocket 2.9 17:54:01 10° S 17:58:17 87° ESE 18:02:35 10° N
H-2A R/B 2.8 17:59:31 28° E 18:00:11 29° ENE 18:04:35 10° N
SL-24 DEB 4.4 17:56:43 10° NNE 18:01:21 50° E 18:05:54 10° SSE
ISS -2.0 17:59:16 10° WNW 18:01:59 22° N 18:02:36 21° N
ERS-2 2.3 18:00:55 12° N 18:04:18 74° WNW 18:07:56 10° SSW
BREEZE-M DEB (TANK) 3.7 18:02:49 10° SSW 18:05:48 20° SSE 18:06:02 20° SE
Okean-O 2.9 18:02:19 10° SE 18:06:30 44° ENE 18:10:44 10° N
X-37B 1.7 18:05:40 10° SW 18:08:24 31° SSE 18:08:24 31° SSE
TIMED 4.4 18:07:15 10° S 18:11:34 66° ESE 18:13:09 37° NE
OE (NEXTSAT) 4.4 18:08:11 10° W 18:11:36 59° N 18:11:55 56° NNE
Okean O Rocket 3.5 18:08:26 10° SSW 18:12:20 32° W 18:16:18 10° NNW
Cosmos 1933 Rocket 3.7 18:08:39 10° N 18:13:02 51° ENE 18:17:21 10° SSE
USA 215 3.2 18:09:24 25° NE 18:13:34 86° SE 18:20:07 10° SW
Cosmos 1328 Rocket 3.7 18:09:27 10° SSW 18:13:44 73° W 18:18:05 10° N
CZ-4B R/B 2.8 18:15:00 13° N 18:17:24 34° WNW 18:20:15 10° SW
Meteor 1-14 Rocket 4.2 18:13:12 10° N 18:19:09 71° E 18:25:07 10° SSE
Meteor 1-26 Rocket 4.4 18:14:22 10° SSW 18:20:24 81° W 18:26:28 10° N
Cosmos 2218 Rocket 4.2 18:14:19 10° NNW 18:20:28 73° W 18:26:34 10° S
Cosmos 1782 2.9 18:22:18 10° SSW 18:26:15 73° W 18:28:09 29° N
Cosmos 1689 Rocket 3.6 18:27:44 30° SSW 18:27:44 30° SSW 18:29:22 10° SSW
Cosmos 2366 rocket 4.3 18:20:59 10° NNW 18:27:07 68° W 18:33:11 10° S
CSL-04 Debris 4.3 18:30:38 49° E 18:30:54 50° ENE 18:36:12 10° N
CZ-3B R/B 3.1 18:31:19 10° SW 18:32:52 23° SSW 18:32:52 23° SSW
Cosmos 1656 Rocket 4.5 18:30:47 10° NNW 18:34:39 33° NNE 18:34:39 33° NNE
Cosmos 1602 4.4 18:32:29 10° NNW 18:36:19 53° W 18:40:06 10° S
CZ-2D R/B 3.8 18:33:36 10° S 18:37:19 56° W 18:41:07 10° NNW
SKYMED 2 4.5 18:35:45 14° N 18:39:18 48° WNW 18:43:28 10° SW
Cosmos 1538 Rocket 4.0 18:34:11 10° SSW 18:39:33 85° WNW 18:41:40 38° NNE
USA 267 3.2 18:44:00 50° E 18:45:38 68° NE 18:52:08 10° NW
Meteor 1-10 Rocket 4.4 18:40:37 10° S 18:45:10 51° SE 18:45:10 51° SE
Meteor 1-5 Rocket 4.1 18:42:18 10° N 18:48:15 74° ENE 18:50:44 36° SSE
Lacrosse 5 rocket 2.8 18:45:10 10° W 18:47:55 27° NW 18:47:55 27° NW
Cosmos 1603 3.5 18:42:59 10° SSW 18:48:33 69° ESE 18:48:33 69° ESE
CSL-04 Rocket 4.1 18:52:18 46° N 18:52:18 46° N 18:56:04 10° N
Cosmos 2239 Rocket 4.3 18:45:50 10° N 18:51:59 69° E 18:58:09 10° SSE
Helios 1A Rocket 3.9 18:55:12 41° NW 18:55:12 41° NW 18:58:07 10° NNW
BREEZE-M DEB (TANK) 3.4 18:46:34 10° SW 18:54:11 68° SSW 18:54:11 68° SSW
MOS 1 Rocket 3.7 18:53:09 36° N 18:55:30 79° WNW 19:00:54 10° SSW
Cosmos 1943 3.2 18:50:41 10° SSW 18:55:35 63° SSE 18:55:35 63° SSE
CZ-2C R/B 3.5 18:55:13 10° S 19:00:15 57° W 19:05:04 10° NNW
Cosmos 2369 Rocket 2.2 18:55:16 10° NNW 19:00:58 80° WSW 19:01:56 62° S
USA 281 3.4 18:55:18 10° SSE 19:01:50 69° WSW 19:08:24 10° NNW
YAOGAN 1 4.2 19:13:52 30° NW 19:13:52 30° NW 19:16:27 10° NNW
CZ-4 R/B 3.5 19:15:50 22° NW 19:15:50 22° NW 19:17:42 10° NNW
Nadezhda 3 Rocket 4.2 19:08:14 10° SSW 19:14:33 69° W 19:19:08 20° N
Cosmos 1943 Rocket 3.6 19:12:21 10° NW 19:17:21 35° WSW 19:22:23 10° S
CENTAUR R/B 4.3 19:22:51 10° SSW 19:23:58 16° S 19:23:58 16° S
H-2A R/B 3.4 19:40:09 37° WNW 19:40:09 37° WNW 19:44:19 10° NNW
USA 215 4.3 19:56:46 38° NW 19:56:46 38° NW 20:02:08 10° W
